[[{"header":{"parameterUnit":"m.s-1","parameterCategory":1,"la1":30.2991,"la2":30.254,"lo1":-89.0895,"lo2":-89.0444,"dy":0.0017,"dx":0.0017,"nx":28,"ny":28,"refTime":"2025-05-30T09:00:00:Z","depth":0,"parameterNumber":2,"parameterNumberName":"U-component_of_WINDS"},"data":[0,0,0,0,0,0,0,0,0,0,0,0,0,0,0,0,0,0,0,0,0,0,0,0,0,0,0,0,0,0,0,0,0,0,0,0,0,0,0,0,0,0,0,0,0,0,0,0,0,0,0,0,0,0,0,0,0,0,2.6185,2.6186,0,2.6327,2.6329,2.633,2.6319,2.6317,2.6315,2.6313,2.6466,2.6472,2.6478,0,0,0,0,0,0,0,0,0,0,0,0,0,2.5911,2.5916,2.6184,2.6186,2.6188,2.6327,2.6329,2.6331,2.6319,2.6317,2.6314,2.6312,2.6464,2.6472,2.6479,0,0,0,0,0,0,0,0,0,0,0,0,0,2.6039,2.5917,2.6184,2.6199,2.6202,2.6327,2.6329,2.6331,2.632,2.6317,2.6313,2.631,2.6462,2.6471,2.648,2.6602,0,0,2.6508,2.6512,0,0,0,0,0,0,0,0,2.6032,2.6049,2.6195,2.6198,2.6201,2.6302,2.6289,2.6422,2.6321,2.6275,2.6313,2.6309,2.6415,2.6428,2.6462,2.6609,2.6616,2.6509,2.6514,2.6518,2.6521,0,0,0,0,0,0,0,2.6023,2.6043,2.6241,2.6197,2.6201,2.6201,2.6216,2.6314,2.6362,2.6279,2.6278,2.6295,2.6416,2.6453,2.6465,2.6618,2.6509,2.6517,2.6522,2.6526,2.6875,2.6878,0,0,0,0,0,0,2.601,2.6036,2.6237,2.6245,2.6107,2.6209,2.6225,2.6273,2.6361,2.6371,2.6298,2.6294,2.6439,2.6455,2.6471,2.662,2.6518,2.6527,2.6532,2.6871,2.6876,2.688,0,0,0,0,0,0,2.6004,2.6028,2.6231,2.6141,2.6166,2.6217,2.6271,2.6278,2.6314,2.6375,2.6384,2.6326,2.6437,2.6458,2.6569,2.6625,2.6531,2.6539,2.6867,2.6872,2.6878,2.6919,0,0,0,0,0,0,2.5996,2.6026,2.607,2.6142,2.6171,2.6324,2.6274,2.6283,2.6329,2.6326,2.6404,2.6414,2.6436,2.6556,2.6578,2.6636,2.6547,2.6862,2.6869,2.6876,2.6913,2.6925,2.6936,0,0,0,0,0,2.5986,2.6078,2.6072,2.6097,2.6228,2.6328,2.6345,2.6366,2.6334,2.6381,2.642,2.6411,2.6615,2.6567,2.6593,2.6654,2.6858,2.6867,2.6875,2.6908,2.6923,2.6936,0,0,0,0,0,0,2.6014,2.6087,2.6082,2.6199,2.6257,2.6325,2.6385,2.6382,2.6452,2.6446,2.6472,2.649,2.6603,2.664,2.6584,2.6778,2.6733,2.6747,2.6749,2.6764,2.6775,2.6764,2.6554,0,0,0,0,0,2.6033,2.6105,2.6167,2.6264,2.6293,2.6334,2.6378,2.639,2.6452,2.6477,2.6524,2.6587,2.6666,2.6717,2.6793,2.6919,2.6937,2.6974,2.6985,2.6994,2.7006,2.7077,2.7095,2.6907,2.6907,2.6907,0,0,2.6074,2.6123,2.6168,2.6271,2.6317,2.6394,2.6355,2.6438,2.6496,2.6491,2.6598,2.6635,2.6708,2.6827,2.6882,2.6862,2.7062,2.7005,2.7012,2.7019,2.7088,2.7105,2.7121,2.6913,2.6912,2.6911,0,0,2.6188,2.6232,2.6318,2.6365,2.6435,2.6462,2.6483,2.6552,2.6576,2.6684,2.6682,2.6753,2.6887,2.6939,2.6983,2.7119,2.7115,2.7143,2.7204,2.7273,2.7287,2.7301,2.735,2.7367,2.7155,2.7155,2.7155,0,2.6231,2.6344,2.6363,2.6447,2.6493,2.649,2.6579,2.6625,2.6717,2.675,2.6725,2.6894,2.6943,2.7075,2.7108,2.7144,2.717,2.7134,2.7283,2.7297,2.731,2.7357,2.7375,2.7158,2.7158,2.7157,2.7157,0,2.6395,2.6473,2.6535,2.6621,2.6675,2.6761,2.6796,2.6848,2.6856,2.6886,2.6998,2.7056,2.7143,2.7176,2.7185,2.7311,2.7296,2.7277,2.7233,2.733,2.7375,2.7393,2.7162,2.7161,2.716,2.716,0,0,2.6529,2.6625,2.6647,2.6687,2.6765,2.6828,2.6915,2.6998,2.7043,2.7108,2.7183,2.7298,2.7281,2.7331,2.7346,2.7407,2.7512,2.7381,2.7383,2.7404,2.7656,2.7669,2.7689,2.751,2.7513,2.7516,2.765,0,2.6651,2.6802,2.6822,2.6957,2.7032,2.7031,2.7108,2.7165,2.7197,2.7267,2.7303,2.7383,2.7355,2.7385,2.7445,2.7486,2.7563,2.7477,2.7582,2.7586,2.7563,2.7713,2.7727,2.785,2.7667,2.767,2.7672,0,2.6813,2.688,2.7021,2.709,2.7122,2.719,2.7269,2.7335,2.7401,2.742,2.7477,2.7485,2.7578,2.753,2.7661,2.7602,2.7647,2.7674,2.7679,2.769,2.7635,2.7728,2.7889,2.7908,2.77,2.7698,2.7696,0,2.6898,2.7023,2.7124,2.7158,2.7241,2.7289,2.7326,2.7389,2.7438,2.7509,2.7541,2.7623,2.7667,2.7732,2.7763,2.7724,2.7892,2.7846,2.7912,2.7911,2.7947,2.7944,2.8118,2.7976,2.7975,2.7975,2.7975,0,2.7032,2.7119,2.7163,2.7225,2.7324,2.7348,2.7446,2.7482,2.7538,2.761,2.7616,2.7683,2.772,2.7794,2.7819,2.7924,2.7945,2.7964,2.797,2.7964,2.7961,2.7993,2.7986,2.798,2.7979,2.7978,2.7977,0,2.7142,2.7175,2.7285,2.7354,2.7374,2.7443,2.7504,2.7566,2.7597,2.7688,2.771,2.7761,2.7848,2.7886,2.7994,2.8011,2.8132,2.8131,2.8108,2.811,2.8174,2.8168,2.8375,2.8404,2.8242,2.8243,2.8245,0,2.7226,2.7292,2.7368,2.7414,2.7452,2.7528,2.7578,2.7606,2.7659,2.774,2.7793,2.788,2.7951,2.8092,2.814,2.8223,2.8225,2.8292,2.8238,2.823,2.8227,2.8222,2.823,2.8302,2.8303,2.8305,2.8306,0,2.737,2.7383,2.7453,2.753,2.7589,2.7652,2.7713,2.7752,2.779,2.7849,2.7937,2.7992,2.8102,2.819,2.8276,2.8318,2.8319,2.8322,2.8342,2.8336,2.832,2.833,2.8135,2.8317,2.8316,2.8315,2.8315,2.8314,2.747,2.7529,2.7592,2.7671,2.7719,2.7777,2.7838,2.7877,2.795,2.804,2.8053,2.8148,2.8215,2.8331,2.8376,2.8453,2.8436,2.8465,2.8472,2.8479,2.8483,2.8308,2.8469,2.8469,2.8468,2.8468,2.8468,0,2.7615,2.7655,2.7727,2.7812,2.7875,2.7868,2.7936,2.799,2.8072,2.8134,2.8203,2.8306,2.8391,2.8445,2.8532,2.8583,2.8586,2.8605,2.8601,2.8611,2.8492,2.8467,2.8601,2.8601,2.8601,2.8601,2.8601,2.8601,2.7698,2.7798,2.7819,2.7945,2.7985,2.8076,2.8116,2.817,2.8219,2.8332,2.8402,2.8436,2.8496,2.8587,2.8666,2.868,2.8712,2.8732,2.8746,2.8633,2.862,2.8606,2.8582,2.8739,2.8739,2.8858,2.8859,2.886]},{"header":{"parameterUnit":"m.s-1","parameterCategory":1,"la1":30.2991,"la2":30.254,"lo1":-89.0895,"lo2":-89.0444,"dy":0.0017,"dx":0.0017,"nx":28,"ny":28,"refTime":"2025-05-30T09:00:00:Z","depth":0,"parameterNumber":3,"parameterNumberName":"V-component_of_WINDS"},"data":[0,0,0,0,0,0,0,0,0,0,0,0,0,0,0,0,0,0,0,0,0,0,0,0,0,0,0,0,0,0,0,0,0,0,0,0,0,0,0,0,0,0,0,0,0,0,0,0,0,0,0,0,0,0,0,0,0,0,-0.2229,-0.2228,0,-0.2067,-0.2065,-0.2063,-0.2057,-0.2059,-0.206,-0.2062,-0.1894,-0.1887,-0.1881,0,0,0,0,0,0,0,0,0,0,0,0,0,-0.2533,-0.2527,-0.223,-0.2228,-0.2226,-0.2067,-0.2065,-0.2063,-0.2056,-0.2059,-0.2061,-0.2063,-0.1896,-0.1888,-0.1881,0,0,0,0,0,0,0,0,0,0,0,0,0,-0.2389,-0.2525,-0.223,-0.2203,-0.2199,-0.2067,-0.2065,-0.2062,-0.2056,-0.2059,-0.2062,-0.2064,-0.1898,-0.1889,-0.188,-0.1763,0,0,-0.1851,-0.1847,0,0,0,0,0,0,0,0,-0.2397,-0.2377,-0.2209,-0.2205,-0.22,-0.2085,-0.211,-0.1962,-0.2055,-0.211,-0.2062,-0.2066,-0.1955,-0.1941,-0.1904,-0.1755,-0.1748,-0.185,-0.1844,-0.184,-0.1837,0,0,0,0,0,0,0,-0.2407,-0.2384,-0.2165,-0.2207,-0.2201,-0.2199,-0.2182,-0.2082,-0.2018,-0.2106,-0.2105,-0.2086,-0.1953,-0.1913,-0.19,-0.1745,-0.185,-0.1842,-0.1836,-0.1832,-0.149,-0.1486,0,0,0,0,0,0,-0.2422,-0.2393,-0.217,-0.216,-0.2308,-0.2191,-0.2172,-0.2119,-0.2019,-0.2007,-0.2083,-0.2086,-0.1928,-0.1911,-0.1894,-0.1748,-0.184,-0.1831,-0.1826,-0.1493,-0.1489,-0.1485,0,0,0,0,0,0,-0.2429,-0.2403,-0.2177,-0.2276,-0.2247,-0.2183,-0.2124,-0.2114,-0.2074,-0.2002,-0.1991,-0.2054,-0.1929,-0.1907,-0.1795,-0.1743,-0.1827,-0.1818,-0.1497,-0.1492,-0.1487,-0.1458,0,0,0,0,0,0,-0.2438,-0.2405,-0.236,-0.2275,-0.2242,-0.2081,-0.212,-0.2109,-0.2058,-0.206,-0.1972,-0.196,-0.193,-0.1809,-0.1786,-0.1731,-0.1811,-0.1501,-0.1495,-0.1489,-0.1463,-0.1452,-0.1443,0,0,0,0,0,-0.2448,-0.2359,-0.2358,-0.2331,-0.2185,-0.2078,-0.2059,-0.2027,-0.2054,-0.2008,-0.1962,-0.1963,-0.1753,-0.1798,-0.1771,-0.1713,-0.1505,-0.1497,-0.1489,-0.1468,-0.1455,-0.1443,0,0,0,0,0,0,-0.2439,-0.2347,-0.2345,-0.2226,-0.216,-0.2078,-0.2019,-0.2014,-0.1939,-0.1943,-0.1906,-0.1886,-0.1774,-0.1733,-0.1785,-0.1594,-0.1632,-0.1618,-0.1624,-0.1611,-0.1601,-0.1613,-0.1803,0,0,0,0,0,-0.2423,-0.2345,-0.2269,-0.217,-0.2137,-0.2084,-0.2036,-0.2017,-0.1947,-0.1919,-0.1864,-0.1796,-0.1714,-0.1661,-0.1582,-0.1458,-0.1437,-0.1405,-0.1395,-0.1387,-0.1375,-0.1304,-0.1288,-0.146,-0.146,-0.146,0,0,-0.2389,-0.2329,-0.2282,-0.2167,-0.2113,-0.2032,-0.206,-0.1973,-0.1912,-0.1905,-0.1795,-0.1753,-0.1674,-0.1555,-0.15,-0.1517,-0.1323,-0.1377,-0.1371,-0.1364,-0.1295,-0.1279,-0.1264,-0.1455,-0.1456,-0.1457,0,0,-0.2285,-0.2233,-0.2144,-0.209,-0.2009,-0.1974,-0.1953,-0.1871,-0.1842,-0.1732,-0.1724,-0.1651,-0.1512,-0.1455,-0.1408,-0.1282,-0.1279,-0.1257,-0.1204,-0.1136,-0.1122,-0.111,-0.1063,-0.1047,-0.1246,-0.1246,-0.1246,0,-0.2253,-0.213,-0.2099,-0.2011,-0.196,-0.1951,-0.186,-0.1809,-0.1706,-0.167,-0.1691,-0.1515,-0.1461,-0.1328,-0.1297,-0.126,-0.1233,-0.1266,-0.1127,-0.1114,-0.1102,-0.1057,-0.1039,-0.1244,-0.1244,-0.1244,-0.1245,0,-0.2094,-0.2009,-0.1947,-0.1847,-0.179,-0.1701,-0.1655,-0.16,-0.1586,-0.1548,-0.1435,-0.137,-0.1277,-0.1244,-0.123,-0.1108,-0.1121,-0.1135,-0.1172,-0.1084,-0.1041,-0.1023,-0.1241,-0.1241,-0.1242,-0.1243,0,0,-0.1978,-0.1863,-0.184,-0.1794,-0.1704,-0.1637,-0.1548,-0.1457,-0.1409,-0.1339,-0.1261,-0.1144,-0.1155,-0.1102,-0.1081,-0.1021,-0.0923,-0.1042,-0.104,-0.102,-0.0783,-0.0771,-0.0751,-0.0922,-0.0918,-0.0916,-0.0788,0,-0.1862,-0.1703,-0.1672,-0.1533,-0.1452,-0.1443,-0.1364,-0.13,-0.1262,-0.1188,-0.1147,-0.1063,-0.1086,-0.1054,-0.0995,-0.0948,-0.0874,-0.0957,-0.0848,-0.0844,-0.0865,-0.0729,-0.0717,-0.0599,-0.0772,-0.0769,-0.0767,0,-0.1706,-0.1631,-0.1484,-0.1403,-0.1368,-0.1298,-0.1212,-0.1142,-0.1068,-0.1045,-0.0985,-0.0971,-0.0876,-0.0919,-0.0787,-0.0844,-0.0798,-0.0768,-0.0763,-0.0749,-0.0798,-0.071,-0.0562,-0.0543,-0.074,-0.0742,-0.0744,0,-0.1633,-0.1496,-0.139,-0.1351,-0.1255,-0.1205,-0.1163,-0.1092,-0.1039,-0.0964,-0.0929,-0.0843,-0.0796,-0.073,-0.0692,-0.0727,-0.0562,-0.0603,-0.0538,-0.0539,-0.0502,-0.0504,-0.0342,-0.0476,-0.0477,-0.0477,-0.0477,0,-0.1506,-0.1415,-0.1355,-0.129,-0.1188,-0.1153,-0.1053,-0.1011,-0.0948,-0.0873,-0.0861,-0.079,-0.0746,-0.0669,-0.064,-0.0533,-0.0513,-0.049,-0.0483,-0.049,-0.0492,-0.0457,-0.0463,-0.0472,-0.0473,-0.0474,-0.0475,0,-0.1406,-0.1363,-0.1246,-0.1164,-0.1142,-0.107,-0.1,-0.0935,-0.0898,-0.0803,-0.0779,-0.072,-0.0629,-0.0585,-0.0473,-0.0453,-0.0332,-0.0331,-0.0356,-0.0353,-0.029,-0.0296,-0.0097,-0.0069,-0.0225,-0.0223,-0.0222,0,-0.1327,-0.1257,-0.1168,-0.1117,-0.1073,-0.0991,-0.0937,-0.09,-0.0844,-0.0754,-0.07,-0.0608,-0.0533,-0.0388,-0.0335,-0.0248,-0.0243,-0.018,-0.023,-0.0239,-0.0239,-0.0243,-0.0235,-0.017,-0.0169,-0.0168,-0.0167,0,-0.1189,-0.1171,-0.1093,-0.1007,-0.0943,-0.0874,-0.0806,-0.0765,-0.0717,-0.0654,-0.0561,-0.0502,-0.0387,-0.0296,-0.0205,-0.0161,-0.0154,-0.0152,-0.0132,-0.0137,-0.0153,-0.0141,-0.0329,-0.0156,-0.0157,-0.0158,-0.0158,-0.0159,-0.1095,-0.1032,-0.0959,-0.0872,-0.0817,-0.0754,-0.0688,-0.0643,-0.0565,-0.0468,-0.0451,-0.0351,-0.0279,-0.0157,-0.0109,-0.003,-0.0044,-0.0016,-0.0008,-0.0001,0.0003,-0.0168,-0.0014,-0.0014,-0.0014,-0.0014,-0.0015,0,-0.0955,-0.0908,-0.0828,-0.0733,-0.0665,-0.0666,-0.0591,-0.0533,-0.0446,-0.0379,-0.0305,-0.0197,-0.0108,-0.0048,0.0042,0.0094,0.0099,0.0117,0.0115,0.0125,0.001,-0.0015,0.0111,0.0111,0.0111,0.0111,0.0111,0.0111,-0.0874,-0.0766,-0.0739,-0.0604,-0.0557,-0.0459,-0.0415,-0.0356,-0.0302,-0.0182,-0.0108,-0.007,-0.0005,0.009,0.0172,0.0187,0.0221,0.0239,0.0255,0.0146,0.0133,0.0121,0.0098,0.0246,0.0246,0.0364,0.0365,0.0366]}]]